GLD1787 SBMT-SBJD

Flight info

Callsign GLD1787
Flight time 0h 26m
Altitude 4100
Route REA
Aircraft C152/M-SDFGIRY/S

Departure

Time 2026-04-27 23:52
Airport Campo de Marte Airport (SBMT)

Arrival

Time 2026-04-28 00:19
Airport Comte. Rolim Adolfo Amaro–Jundiaí State Airport (SBJD)
Time Latitude Longitude Altitude Speed Heading
2026-04-27 23:31 -23.51318 -46.63420 2351 ft 0 kts 82°
2026-04-27 23:46 -23.51317 -46.63418 2378 ft 1 kts 60°
2026-04-27 23:46 -23.51283 -46.63416 2378 ft 8 kts 348°
2026-04-27 23:46 -23.51232 -46.63416 2378 ft 10 kts 348°
2026-04-27 23:46 -23.51143 -46.63434 2378 ft 16 kts 349°
2026-04-27 23:47 -23.51046 -46.63450 2378 ft 9 kts 358°
2026-04-27 23:47 -23.51032 -46.63405 2378 ft 10 kts 101°
2026-04-27 23:47 -23.51048 -46.63316 2379 ft 13 kts 104°
2026-04-27 23:47 -23.51052 -46.63294 2379 ft 0 kts 102°
2026-04-27 23:48 -23.51055 -46.63276 2379 ft 6 kts 99°
2026-04-27 23:48 -23.51067 -46.63203 2379 ft 12 kts 101°
2026-04-27 23:48 -23.51084 -46.63100 2379 ft 15 kts 101°
2026-04-27 23:48 -23.51092 -46.63018 2379 ft 0 kts 40°
2026-04-27 23:50 -23.51060 -46.63009 2380 ft 8 kts
2026-04-27 23:50 -23.51035 -46.63027 2380 ft 0 kts 280°
2026-04-27 23:51 -23.51030 -46.63062 2380 ft 19 kts 278°
2026-04-27 23:51 -23.50971 -46.63400 2384 ft 68 kts 278°
2026-04-27 23:51 -23.50876 -46.63949 2512 ft 79 kts 278°
2026-04-27 23:51 -23.50772 -46.64556 2697 ft 81 kts 280°
2026-04-27 23:52 -23.50650 -46.65154 2930 ft 79 kts 282°
2026-04-27 23:52 -23.50513 -46.65723 3157 ft 79 kts 283°
2026-04-27 23:52 -23.50391 -46.66282 3395 ft 74 kts 282°
2026-04-27 23:52 -23.50241 -46.66811 3581 ft 74 kts 282°
2026-04-27 23:53 -23.50114 -46.67349 3715 ft 76 kts 281°
2026-04-27 23:53 -23.49938 -46.67884 3908 ft 75 kts 294°
2026-04-27 23:53 -23.49667 -46.68357 4080 ft 73 kts 300°
2026-04-27 23:53 -23.49377 -46.68842 4146 ft 80 kts 302°
2026-04-27 23:54 -23.49058 -46.69379 4122 ft 88 kts 300°
2026-04-27 23:54 -23.48725 -46.69934 4172 ft 85 kts 303°
2026-04-27 23:54 -23.48344 -46.70450 4168 ft 92 kts 307°
2026-04-27 23:54 -23.47861 -46.70942 4121 ft 98 kts 318°
2026-04-27 23:55 -23.47319 -46.71403 4056 ft 98 kts 320°
2026-04-27 23:55 -23.46770 -46.71821 4055 ft 95 kts 324°
2026-04-27 23:55 -23.46227 -46.72185 4072 ft 93 kts 326°
2026-04-27 23:55 -23.45685 -46.72550 4059 ft 90 kts 323°
2026-04-27 23:56 -23.45140 -46.72880 4088 ft 88 kts 332°
2026-04-27 23:56 -23.44558 -46.73099 4130 ft 92 kts 340°
2026-04-27 23:56 -23.43906 -46.73256 4113 ft 97 kts 345°
2026-04-27 23:56 -23.43256 -46.73358 4157 ft 92 kts 350°
2026-04-27 23:57 -23.42595 -46.73378 4182 ft 94 kts
2026-04-27 23:57 -23.41950 -46.73323 4226 ft 95 kts
2026-04-27 23:57 -23.41258 -46.73300 4172 ft 102 kts 359°
2026-04-27 23:57 -23.40538 -46.73279 4086 ft 105 kts 358°
2026-04-27 23:58 -23.39806 -46.73277 4071 ft 103 kts 357°
2026-04-27 23:58 -23.39114 -46.73284 4090 ft 100 kts 355°
2026-04-27 23:58 -23.38405 -46.73296 4067 ft 103 kts 355°
2026-04-27 23:58 -23.37679 -46.73316 4070 ft 102 kts 354°
2026-04-27 23:59 -23.36982 -46.73365 4058 ft 101 kts 353°
2026-04-27 23:59 -23.36506 -46.73397 4058 ft 101 kts 354°
2026-04-27 23:59 -23.35570 -46.73470 4035 ft 102 kts 354°
2026-04-27 23:59 -23.34869 -46.73542 4040 ft 100 kts 351°
2026-04-28 00:00 -23.34168 -46.73600 4033 ft 101 kts 353°
2026-04-28 00:00 -23.33475 -46.73698 4041 ft 99 kts 348°
2026-04-28 00:00 -23.33024 -46.73784 4040 ft 100 kts 348°
2026-04-28 00:00 -23.32334 -46.73893 4041 ft 100 kts 349°
2026-04-28 00:01 -23.31641 -46.73994 4041 ft 100 kts 351°
2026-04-28 00:01 -23.30955 -46.74098 4049 ft 99 kts 347°
2026-04-28 00:01 -23.30289 -46.74296 4051 ft 99 kts 339°
2026-04-28 00:01 -23.29640 -46.74548 4060 ft 98 kts 338°
2026-04-28 00:02 -23.29005 -46.74793 4082 ft 95 kts 338°
2026-04-28 00:02 -23.28377 -46.75053 4056 ft 98 kts 337°
2026-04-28 00:02 -23.27729 -46.75300 4025 ft 99 kts 341°
2026-04-28 00:02 -23.27090 -46.75578 4020 ft 99 kts 334°
2026-04-28 00:03 -23.26456 -46.75885 3986 ft 100 kts 335°
2026-04-28 00:03 -23.25808 -46.76156 3976 ft 98 kts 337°
2026-04-28 00:03 -23.25177 -46.76412 3940 ft 99 kts 338°
2026-04-28 00:03 -23.24547 -46.76659 3980 ft 96 kts 340°
2026-04-28 00:04 -23.23902 -46.76893 3969 ft 97 kts 339°
2026-04-28 00:04 -23.22692 -46.77440 4018 ft 95 kts 333°
2026-04-28 00:04 -23.22072 -46.77706 4003 ft 97 kts 338°
2026-04-28 00:05 -23.21436 -46.77944 4020 ft 96 kts 339°
2026-04-28 00:05 -23.20809 -46.78187 4044 ft 96 kts 340°
2026-04-28 00:05 -23.20173 -46.78376 4085 ft 95 kts 343°
2026-04-28 00:05 -23.19519 -46.78532 4109 ft 96 kts 347°
2026-04-28 00:06 -23.18857 -46.78649 4116 ft 98 kts 347°
2026-04-28 00:06 -23.18191 -46.78793 4139 ft 97 kts 347°
2026-04-28 00:06 -23.17504 -46.78877 4135 ft 99 kts 351°
2026-04-28 00:06 -23.16826 -46.78983 4149 ft 98 kts 347°
2026-04-28 00:07 -23.16167 -46.79106 4165 ft 96 kts 347°
2026-04-28 00:07 -23.15511 -46.79249 4176 ft 96 kts 345°
2026-04-28 00:07 -23.14847 -46.79409 4147 ft 101 kts 345°
2026-04-28 00:07 -23.14150 -46.79578 4117 ft 102 kts 346°
2026-04-28 00:08 -23.13449 -46.79707 4107 ft 102 kts 349°
2026-04-28 00:08 -23.12763 -46.79838 4128 ft 99 kts 347°
2026-04-28 00:08 -23.12110 -46.80034 4129 ft 99 kts 331°
2026-04-28 00:08 -23.11598 -46.80530 4103 ft 98 kts 300°
2026-04-28 00:09 -23.11386 -46.81217 4105 ft 97 kts 274°
2026-04-28 00:09 -23.11525 -46.81933 4087 ft 97 kts 244°
2026-04-28 00:09 -23.11919 -46.82521 4061 ft 97 kts 231°
2026-04-28 00:09 -23.12356 -46.83095 4025 ft 98 kts 233°
2026-04-28 00:10 -23.12718 -46.83708 4036 ft 96 kts 240°
2026-04-28 00:10 -23.13034 -46.84353 4038 ft 95 kts 240°
2026-04-28 00:10 -23.13386 -46.84942 4061 ft 94 kts 239°
2026-04-28 00:10 -23.13704 -46.85566 4054 ft 96 kts 243°
2026-04-28 00:11 -23.14029 -46.86203 4014 ft 100 kts 242°
2026-04-28 00:11 -23.14327 -46.86885 3979 ft 100 kts 247°
2026-04-28 00:11 -23.14579 -46.87584 3999 ft 98 kts 250°
2026-04-28 00:11 -23.14821 -46.88267 3999 ft 97 kts 251°
2026-04-28 00:12 -23.15058 -46.88961 3956 ft 99 kts 248°
2026-04-28 00:12 -23.15317 -46.89662 3942 ft 98 kts 249°
2026-04-28 00:12 -23.15542 -46.90352 3951 ft 97 kts 252°
2026-04-28 00:12 -23.15681 -46.91074 3946 ft 97 kts 261°
2026-04-28 00:13 -23.15778 -46.91775 3983 ft 94 kts 261°
2026-04-28 00:13 -23.15832 -46.92499 3952 ft 98 kts 274°
2026-04-28 00:13 -23.15680 -46.93203 3955 ft 96 kts 285°
2026-04-28 00:13 -23.15438 -46.93900 3959 ft 97 kts 292°
2026-04-28 00:14 -23.15162 -46.94538 3908 ft 94 kts 301°
2026-04-28 00:14 -23.14659 -46.95016 3775 ft 96 kts 330°
2026-04-28 00:14 -23.14081 -46.95305 3795 ft 85 kts 334°
2026-04-28 00:14 -23.13539 -46.95489 3791 ft 80 kts 342°
2026-04-28 00:15 -23.12976 -46.95675 3720 ft 84 kts 341°
2026-04-28 00:15 -23.12430 -46.95859 3755 ft 79 kts 340°
2026-04-28 00:15 -23.11926 -46.96103 3799 ft 77 kts 314°
2026-04-28 00:15 -23.11749 -46.96591 3865 ft 71 kts 264°
2026-04-28 00:16 -23.11970 -46.97009 3954 ft 64 kts 217°
2026-04-28 00:16 -23.12401 -46.97145 4023 ft 68 kts 179°
2026-04-28 00:16 -23.12866 -46.96973 4034 ft 79 kts 155°
2026-04-28 00:16 -23.13355 -46.96686 3999 ft 80 kts 153°
2026-04-28 00:17 -23.13838 -46.96379 3915 ft 81 kts 153°
2026-04-28 00:17 -23.14333 -46.96095 3809 ft 79 kts 156°
2026-04-28 00:17 -23.14819 -46.95854 3673 ft 76 kts 158°
2026-04-28 00:17 -23.15319 -46.95633 3490 ft 79 kts 169°
2026-04-28 00:18 -23.15824 -46.95405 3270 ft 77 kts 167°
2026-04-28 00:18 -23.16317 -46.95196 3017 ft 75 kts 170°
2026-04-28 00:18 -23.16771 -46.94994 2785 ft 65 kts 171°
2026-04-28 00:18 -23.17164 -46.94818 2597 ft 57 kts 160°
2026-04-28 00:19 -23.17506 -46.94655 2471 ft 47 kts 160°
2026-04-28 00:19 -23.17740 -46.94550 2463 ft 23 kts 154°
2026-04-28 00:19 -23.17863 -46.94493 2467 ft 17 kts 158°
2026-04-28 00:19 -23.17973 -46.94442 2471 ft 17 kts 157°
2026-04-28 00:20 -23.18072 -46.94396 2475 ft 14 kts 148°
2026-04-28 00:20 -23.18071 -46.94315 2477 ft 7 kts 72°
2026-04-28 00:20 -23.18070 -46.94313 2477 ft 0 kts 73°
2026-04-28 00:21 -23.18076 -46.94295 2478 ft 6 kts 154°
2026-04-28 00:21 -23.18087 -46.94257 2479 ft 3 kts 67°
2026-04-28 00:22 -23.18098 -46.94246 2479 ft 0 kts 247°
2026-04-28 00:22 -23.18099 -46.94250 2479 ft 0 kts 258°